Wind_Speed
11 13 14 15 15 15 14 12 12 11 9 8 8 7 8 7 7 6 6 5 4 3 3 5 4 4 5 5 6 6 7 7 8 11 13 15 13 11 12 11 11 13 11 10 10 9 9 10 11
9 11 12 13 14 14 13 12 11 11 11 11 9 8 8 6 7 6 6 6 5 5 5 5 6 6 6 6 6 6 6 7 8 9 9 9 10 10 11 11 11 10 8 8 9 11 11 10 10
8 9 9 10 11 11 11 11 10 9 9 9 8 7 8 8 8 6 5 5 5 4 5 7 7 7 8 8 8 9 8 8 8 9 9 10 10 10 10 10 10 10 10 11 10 9 9 10 10
5 6 6 7 8 8 8 8 9 8 8 7 6 6 6 7 7 7 5 5 4 4 5 6 8 9 10 9 10 10 11 11 11 11 11 10 11 11 11 11 11 11 12 12 12 12 12 13 14
3 4 5 7 6 7 6 6 7 8 7 5 6 6 5 7 9 8 7 6 4 3 4 5 7 8 10 11 12 11 11 11 12 13 13 13 13 13 13 13 13 12 11 12 11 12 12 12 13
7 8 9 10 10 9 9 8 8 8 8 9 9 9 6 7 8 9 7 7 5 4 3 4 5 7 9 10 12 13 13 12 13 13 15 15 16 16 15 15 14 13 13 12 10 10 9 10 11
12 12 13 13 14 13 12 12 12 12 12 11 12 13 11 9 11 10 9 9 8 7 5 4 5 6 7 9 11 12 13 14 15 16 17 17 18 18 19 19 18 17 17 16 15 15 14 15 15
16 16 17 17 17 18 17 17 17 16 16 16 16 16 16 16 16 14 13 12 12 11 9 8 7 6 7 9 9 11 12 14 15 16 17 18 20 21 21 21 21 21 21 21 21 21 21 21 20
20 20 19 20 21 21 21 21 22 20 20 22 20 20 19 19 20 20 18 16 15 14 12 12 11 11 10 10 10 11 12 13 14 15 17 18 20 21 24 24 25 26 26 25 25 25 25 25 25
23 21 23 23 24 23 23 23 26 24 24 26 26 25 23 23 21 23 23 22 21 18 17 16 15 15 13 14 14 14 14 15 15 16 16 18 20 21 22 24 26 28 30 30 29 30 30 30 29
22 23 24 25 26 25 25 27 28 27 23 32 28 27 27 26 24 23 25 26 26 23 22 22 21 20 18 18 18 18 17 18 18 18 19 19 20 21 23 24 26 27 29 30 31 31 31 31 31
25 25 27 26 28 28 29 28 30 27 28 34 28 27 28 28 25 24 24 26 28 28 26 25 26 26 24 23 24 24 22 23 23 22 21 22 23 24 24 25 26 28 29 31 32 33 33 33 33
29 29 30 30 30 32 34 31 31 22 33 29 28 26 25 24 24 23 23 26 29 30 31 30 26 27 29 28 29 29 29 28 28 28 27 28 28 27 27 28 29 29 31 32 32 33 33 34 34
32 33 32 31 34 37 36 30 31 28 33 29 27 26 24 22 22 21 23 24 25 27 31 30 31 30 30 30 31 33 33 33 32 33 33 33 33 32 32 31 32 32 33 33 35 36 36 36 36
37 38 37 35 37 40 39 33 29 32 31 28 26 22 23 22 22 23 25 26 28 28 30 30 32 32 32 32 31 32 35 36 36 36 37 37 37 38 38 37 36 36 36 36 37 38 39 39 38
42 44 43 37 36 42 42 38 29 33 33 27 26 25 24 21 22 26 28 27 30 32 33 34 34 34 33 34 34 34 34 35 36 38 40 39 39 41 41 41 42 41 40 40 40 41 42 42 41
44 48 46 43 34 41 44 39 29 32 34 25 25 24 25 23 24 28 28 26 28 30 32 33 35 35 36 38 39 39 39 38 37 37 40 42 43 45 45 45 45 45 44 43 44 45 44 44 43
48 47 46 45 32 38 42 39 37 28 39 26 23 23 22 26 28 28 27 27 29 30 33 34 34 34 34 35 36 37 40 41 43 41 40 43 46 47 48 48 48 48 46 47 47 48 49 46 45
45 46 45 43 43 44 38 41 39 34 33 32 25 24 27 28 29 31 31 31 34 36 36 35 35 38 41 43 42 41 38 41 44 44 44 46 46 47 47 49 50 50 49 50 51 51 49 50 50
45 48 47 46 43 43 43 40 45 45 38 37 34 32 36 38 38 35 35 40 43 43 43 43 45 47 47 47 47 46 45 43 45 47 46 47 49 50 50 51 51 53 55 53 54 53 52 52 54
50 51 49 48 45 43 43 44 48 52 48 44 37 37 42 45 44 45 43 42 43 44 49 50 50 50 51 52 50 51 51 48 48 49 52 53 53 55 56 55 55 56 55 56 55 55 55 55 54
46 45 47 51 54 56 50 55 54 56 58 56 54 52 48 46 46 46 47 42 41 45 50 53 55 56 56 55 55 54 56 55 54 57 56 55 54 56 60 59 60 60 57 58 59 58 57 57 56
52 54 54 54 55 58 56 57 59 58 60 59 55 49 22 25 30 34 44 48 51 50 54 56 60 61 60 60 61 63 63 60 62 64 60 60 59 58 61 63 64 65 63 61 61 63 62 58 60
53 55 56 58 59 60 57 58 64 63 52 42 31 18 18 21 33 49 66 55 54 52 55 55 59 61 63 65 64 65 61 65 67 66 63 64 65 64 64 65 66 64 66 68 65 66 67 64 61
51 53 57 58 59 61 60 62 65 64 54 62 63 64 65 63 69 71 69 67 63 62 60 58 56 56 57 60 62 64 68 71 69 69 68 63 62 65 68 68 67 68 69 71 72 70 73 72 67
50 49 51 58 59 65 64 72 69 67 68 72 75 76 74 71 71 74 76 77 74 71 63 57 59 63 63 63 66 68 68 71 74 65 66 66 65 62 64 64 67 68 70 71 74 74 75 78 71
59 62 60 64 66 72 74 74 73 73 75 72 71 78 81 80 77 74 72 71 74 73 71 69 65 63 64 63 64 67 71 70 70 70 69 70 74 75 74 72 77 78 75 77 78 77 75 77 74
62 62 65 66 67 73 79 78 78 75 77 79 81 83 83 82 80 76 71 72 69 67 68 68 67 65 66 70 72 72 77 78 80 81 82 84 84 84 86 87 87 88 83 85 80 76 76 73 74
63 63 65 66 70 75 76 83 78 77 77 81 83 83 82 82 81 78 77 75 73 71 73 72 67 67 66 70 79 80 79 78 81 81 81 82 85 82 86 88 83 80 72 70 73 70 73 75 77
66 66 64 68 71 72 74 76 68 71 79 83 83 83 83 83 80 79 80 79 81 79 76 73 70 67 68 68 73 79 83 83 82 80 77 77 77 79 79 78 79 76 71 73 68 72 74 75 75
Wind_Direction
62 61 59 57 54 54 55 56 53 45 38 31 21 4 345 334 316 312 314 304 287 255 194 149 142 144 142 147 158 173 171 167 173 179 180 185 188 195 200 205 221 224 220 213 212 215 214 222 227
61 57 54 54 52 52 51 53 51 49 44 41 39 29 7 352 350 343 315 302 286 266 241 213 177 175 181 175 173 181 191 195 197 192 189 192 192 193 198 199 200 197 206 207 214 222 226 228 232
58 54 47 43 43 43 43 43 47 45 41 36 36 29 15 11 10 10 346 322 295 271 255 241 223 207 197 198 198 200 199 203 209 216 218 214 208 207 207 209 208 211 218 217 218 225 224 221 220
34 38 34 29 27 24 23 21 20 25 31 23 16 15 3 346 353 1 1 336 324 287 263 245 243 237 228 214 213 210 213 214 215 219 223 224 230 229 226 225 223 222 226 230 234 238 236 235 234
347 356 355 347 348 349 352 350 346 344 346 346 336 351 336 337 331 330 334 342 344 312 280 256 243 242 248 246 241 234 229 227 226 226 226 229 230 234 242 241 240 239 240 240 238 241 247 247 249
311 319 319 316 312 318 318 317 314 306 302 307 309 309 318 316 310 311 307 308 313 315 293 278 266 252 245 245 253 257 255 249 247 244 238 235 235 234 234 240 240 239 239 241 242 249 253 258 251
304 305 302 299 302 303 298 295 292 289 280 278 282 289 295 293 289 290 294 294 295 295 293 280 266 264 257 255 253 251 254 259 259 259 257 253 246 241 240 240 242 248 253 257 256 256 257 257 255
295 295 292 295 292 292 292 286 285 280 277 274 268 270 274 281 283 282 283 287 293 294 296 294 283 269 262 266 260 260 257 255 256 257 257 255 258 258 252 249 248 251 255 258 261 264 266 268 266
293 293 292 289 288 288 288 286 284 282 277 274 269 271 272 269 273 279 280 282 283 283 290 290 288 286 280 267 267 268 269 269 265 261 259 258 257 258 259 257 256 258 260 262 264 267 267 267 267
292 294 289 291 289 291 290 287 283 282 278 274 271 274 279 278 274 274 278 280 279 277 275 274 275 276 276 277 275 270 267 266 269 271 271 270 267 264 263 262 260 258 257 258 261 264 267 267 269
292 295 291 294 294 293 289 286 287 286 285 273 276 281 286 281 278 274 274 279 279 275 270 269 269 268 270 271 273 273 272 272 270 269 268 268 270 271 270 268 267 265 265 263 262 262 264 265 265
289 292 291 293 294 291 286 286 283 295 289 279 285 282 282 284 286 282 277 276 277 280 275 269 271 273 271 268 269 270 270 269 271 273 273 271 272 271 270 273 275 273 272 271 270 269 268 266 265
289 290 293 295 297 291 287 290 293 302 279 290 287 284 283 285 284 285 283 275 274 275 277 276 271 271 272 271 267 265 265 266 268 269 269 269 270 272 272 271 273 275 274 271 270 269 268 267 267
288 288 291 294 294 292 289 287 292 287 288 296 297 292 289 287 285 286 280 276 273 271 270 274 276 271 268 269 268 267 267 265 267 269 271 274 276 275 272 271 272 272 272 272 271 270 271 271 270
288 287 289 291 291 296 290 283 288 282 286 292 298 298 287 284 283 278 274 272 270 268 269 266 265 269 272 273 273 268 267 269 270 270 273 274 275 277 278 277 273 272 271 270 270 269 270 271 272
287 288 287 287 293 292 288 287 285 283 285 290 290 287 287 282 276 272 268 269 272 272 272 272 275 275 275 275 275 276 274 271 269 268 267 270 272 273 273 274 276 275 273 272 271 270 271 270 271
286 287 289 288 292 287 285 281 288 288 283 285 284 283 281 278 273 268 273 279 281 281 279 279 279 280 280 278 275 274 274 274 275 274 272 271 273 273 272 271 272 272 273 273 272 271 270 269 270
284 288 287 287 288 280 279 285 284 284 281 284 278 276 274 266 263 277 285 287 288 288 285 278 276 277 276 277 279 277 272 268 269 269 268 268 267 268 272 273 274 274 274 273 272 270 270 270 268
280 284 285 288 289 287 286 282 282 282 275 282 276 273 265 265 264 271 274 277 285 285 282 279 276 275 277 276 272 270 270 273 275 271 265 265 267 271 273 273 274 274 272 269 269 269 270 269 268
275 277 280 278 279 281 286 280 283 281 285 281 282 275 270 273 269 267 270 276 278 277 274 271 270 272 274 273 271 271 269 269 270 274 274 269 266 266 267 269 269 269 268 268 268 269 269 268 270
270 273 272 273 275 276 279 281 285 289 291 287 280 275 273 270 271 269 267 267 267 269 272 273 272 271 269 268 267 269 273 271 269 268 267 267 261 258 257 260 262 263 268 268 269 271 271 270 269
265 262 267 274 279 282 281 278 281 285 287 292 292 285 277 272 274 267 262 264 268 267 267 267 267 267 267 267 267 269 271 269 267 265 264 265 266 263 261 260 260 260 262 266 268 268 267 268 270
263 266 268 270 273 276 279 278 283 288 289 293 297 299 277 255 249 244 265 273 275 267 265 263 263 263 264 263 267 271 271 266 267 270 268 265 263 264 262 263 263 263 262 260 263 268 267 265 268
268 269 269 268 269 269 274 278 277 284 291 293 286 275 266 235 244 265 280 281 276 268 265 260 263 265 264 266 267 266 266 266 267 267 267 268 268 266 264 262 262 263 264 265 265 266 265 265 266
273 276 277 275 272 274 274 271 268 276 280 281 279 271 271 274 276 275 274 275 274 273 274 273 268 261 261 264 264 263 264 264 263 264 266 263 270 272 269 265 262 260 260 261 263 262 264 263 264
274 270 268 274 276 275 273 271 277 280 281 284 284 287 286 286 285 286 287 289 291 291 285 277 275 274 266 262 261 259 258 259 260 265 263 264 267 267 266 270 268 267 263 258 258 260 261 264 265
277 273 276 277 274 273 273 271 274 279 281 282 283 282 281 285 288 289 288 288 288 287 286 283 278 272 271 266 259 255 254 253 253 257 258 259 262 265 264 265 267 265 265 263 256 257 258 261 265
280 283 282 281 280 280 276 277 276 281 281 280 279 280 282 283 285 283 281 284 283 281 279 278 277 270 266 267 266 259 252 255 256 255 256 256 255 253 257 258 257 260 262 261 261 259 259 259 264
285 284 282 282 279 282 285 280 282 287 287 283 281 282 285 285 284 283 285 286 284 280 278 277 275 270 266 266 267 267 262 259 259 260 260 259 255 257 258 259 261 263 263 261 262 262 258 256 257
287 286 284 280 282 281 278 279 286 284 285 285 286 285 284 285 286 285 284 284 283 281 280 278 274 267 267 263 263 265 263 263 264 263 262 263 260 258 256 259 260 261 262 264 265 266 266 255 254
Height
5882 5881 5880 5879 5881 5877 5876 5875 5873 5872 5871 5869 5868 5867 5866 5865 5864 5865 5862 5862 5862 5861 5862 5861 5861 5862 5862 5861 5861 5861 5861 5862 5862 5862 5862 5862 5863 5864 5864 5865 5865 5866 5866 5867 5867 5867 5868 5869 5869
5883 5882 5881 5879 5879 5877 5877 5875 5874 5872 5871 5869 5868 5867 5865 5865 5863 5862 5861 5860 5860 5860 5860 5860 5860 5860 5861 5861 5861 5862 5862 5862 5862 5862 5862 5862 5863 5864 5864 5864 5865 5865 5865 5866 5866 5866 5867 5867 5868
5884 5883 5882 5880 5879 5878 5877 5876 5874 5872 5871 5869 5868 5867 5866 5864 5863 5862 5860 5859 5858 5858 5858 5859 5859 5859 5859 5860 5860 5861 5861 5862 5862 5862 5862 5862 5862 5863 5863 5864 5865 5864 5865 5865 5865 5865 5866 5866 5866
5884 5884 5883 5881 5880 5879 5877 5876 5874 5872 5871 5869 5868 5867 5866 5864 5862 5861 5859 5858 5857 5856 5856 5856 5857 5857 5858 5858 5858 5859 5860 5860 5860 5861 5861 5862 5862 5862 5862 5863 5863 5863 5864 5864 5864 5864 5864 5865 5865
5884 5883 5882 5881 5879 5878 5877 5876 5874 5872 5870 5869 5867 5866 5865 5864 5862 5861 5859 5858 5856 5855 5855 5854 5854 5855 5856 5856 5857 5857 5857 5858 5859 5859 5860 5860 5861 5861 5861 5861 5861 5861 5862 5862 5862 5863 5862 5863 5863
5883 5882 5881 5879 5877 5877 5875 5874 5873 5871 5869 5868 5866 5865 5864 5862 5861 5859 5858 5856 5855 5854 5853 5853 5853 5853 5853 5854 5854 5854 5855 5856 5856 5857 5857 5857 5858 5858 5858 5859 5859 5859 5860 5860 5860 5861 5860 5861 5861
5881 5880 5879 5877 5875 5874 5873 5872 5871 5869 5867 5866 5865 5863 5862 5861 5859 5858 5857 5855 5854 5853 5852 5851 5851 5850 5850 5851 5851 5851 5851 5852 5853 5854 5854 5855 5855 5855 5855 5856 5856 5856 5856 5856 5857 5857 5857 5858 5858
5879 5877 5876 5874 5873 5872 5870 5869 5867 5866 5865 5863 5862 5861 5859 5857 5856 5856 5855 5855 5854 5852 5852 5851 5850 5849 5849 5848 5848 5848 5848 5848 5849 5849 5850 5850 5850 5851 5851 5852 5852 5853 5853 5853 5853 5853 5853 5854 5853
5875 5874 5872 5870 5869 5868 5866 5864 5862 5862 5861 5858 5858 5857 5856 5855 5853 5852 5853 5853 5852 5851 5850 5849 5848 5848 5847 5847 5846 5846 5846 5845 5845 5845 5845 5845 5845 5846 5846 5847 5847 5847 5848 5848 5848 5848 5849 5849 5849
5871 5870 5867 5865 5864 5863 5861 5859 5857 5857 5856 5853 5852 5852 5852 5852 5851 5850 5848 5848 5848 5848 5847 5846 5845 5844 5844 5844 5844 5843 5843 5842 5842 5842 5842 5842 5842 5842 5842 5842 5842 5842 5842 5842 5842 5843 5843 5843 5843
5867 5865 5862 5860 5858 5858 5856 5854 5851 5851 5853 5844 5848 5848 5848 5847 5847 5846 5845 5843 5842 5843 5843 5842 5841 5841 5841 5840 5839 5839 5839 5838 5838 5837 5837 5837 5837 5838 5838 5838 5838 5837 5837 5837 5837 5837 5836 5836 5836
5861 5859 5856 5855 5852 5850 5849 5849 5847 5847 5844 5838 5843 5844 5843 5842 5842 5841 5841 5839 5837 5836 5836 5836 5836 5836 5836 5836 5835 5834 5834 5833 5833 5833 5833 5832 5832 5831 5832 5832 5832 5832 5832 5832 5831 5830 5830 5830 5829
5854 5853 5851 5850 5847 5843 5841 5842 5840 5843 5833 5836 5836 5837 5837 5837 5836 5835 5835 5833 5832 5831 5829 5829 5830 5830 5830 5830 5830 5829 5828 5827 5827 5827 5826 5825 5825 5826 5826 5825 5825 5825 5825 5825 5825 5825 5825 5824 5823
5847 5846 5845 5844 5839 5836 5833 5836 5833 5834 5830 5832 5831 5830 5830 5831 5830 5830 5827 5826 5825 5824 5823 5823 5823 5822 5823 5822 5822 5822 5823 5822 5822 5821 5820 5820 5820 5819 5818 5818 5819 5818 5818 5818 5818 5818 5818 5818 5817
5837 5837 5837 5837 5834 5827 5825 5829 5829 5825 5824 5826 5824 5824 5823 5823 5822 5821 5819 5819 5817 5817 5816 5816 5816 5815 5816 5816 5815 5814 5814 5816 5817 5817 5816 5815 5814 5813 5813 5812 5810 5809 5809 5810 5810 5810 5810 5809 5809
5828 5825 5826 5832 5828 5819 5816 5817 5825 5820 5818 5820 5819 5817 5816 5816 5814 5811 5810 5810 5809 5809 5809 5808 5809 5810 5811 5810 5808 5807 5806 5805 5806 5806 5805 5806 5806 5805 5804 5803 5803 5802 5801 5801 5801 5801 5800 5800 5800
5820 5814 5813 5816 5822 5810 5805 5808 5818 5814 5810 5815 5812 5810 5808 5808 5805 5800 5801 5802 5803 5803 5803 5802 5802 5803 5802 5802 5803 5802 5800 5799 5798 5798 5798 5797 5796 5794 5794 5794 5794 5793 5793 5792 5790 5791 5790 5790 5791
5807 5805 5803 5801 5812 5805 5796 5800 5802 5808 5799 5806 5806 5804 5801 5798 5796 5794 5793 5794 5794 5794 5795 5795 5794 5791 5790 5790 5790 5791 5791 5792 5789 5789 5788 5787 5786 5784 5783 5783 5783 5783 5784 5784 5782 5779 5780 5780 5780
5799 5796 5794 5795 5792 5789 5794 5788 5791 5796 5798 5795 5797 5797 5793 5791 5788 5787 5786 5785 5785 5784 5783 5784 5783 5781 5780 5778 5777 5776 5777 5777 5778 5778 5777 5776 5776 5776 5775 5774 5772 5773 5772 5770 5769 5769 5769 5769 5769
5790 5786 5786 5784 5784 5782 5780 5782 5780 5781 5786 5788 5787 5785 5782 5780 5779 5778 5777 5775 5773 5773 5771 5771 5769 5769 5768 5767 5765 5765 5765 5766 5764 5764 5766 5766 5766 5763 5762 5761 5759 5759 5760 5759 5758 5759 5758 5758 5758
5779 5776 5774 5773 5773 5774 5771 5772 5771 5769 5772 5773 5776 5774 5771 5769 5767 5766 5765 5763 5762 5761 5761 5760 5759 5758 5756 5753 5752 5751 5751 5753 5753 5751 5749 5750 5748 5748 5745 5744 5744 5743 5746 5748 5747 5747 5746 5746 5745
5767 5767 5765 5763 5761 5758 5762 5756 5759 5757 5755 5754 5755 5756 5754 5753 5752 5752 5752 5753 5753 5751 5749 5746 5743 5741 5739 5740 5741 5741 5740 5738 5737 5735 5735 5734 5735 5736 5736 5732 5729 5728 5729 5732 5734 5733 5732 5733 5734
5755 5755 5754 5752 5749 5747 5746 5746 5744 5742 5738 5736 5736 5734 5732 5732 5732 5733 5738 5740 5740 5739 5737 5734 5731 5728 5727 5725 5724 5725 5724 5724 5723 5720 5720 5719 5718 5718 5719 5718 5718 5718 5716 5715 5716 5719 5719 5717 5719
5744 5741 5738 5736 5736 5736 5735 5736 5732 5728 5727 5725 5724 5726 5726 5723 5721 5723 5720 5722 5722 5720 5720 5721 5722 5721 5718 5715 5712 5709 5707 5706 5707 5706 5704 5703 5703 5701 5701 5702 5702 5702 5703 5704 5701 5702 5703 5704 5701
5731 5729 5724 5723 5721 5724 5723 5725 5721 5715 5717 5715 5713 5709 5709 5712 5710 5707 5705 5703 5703 5702 5703 5702 5700 5700 5701 5700 5697 5695 5693 5690 5688 5687 5687 5685 5685 5685 5685 5683 5682 5682 5683 5684 5685 5684 5687 5686 5687
5716 5717 5712 5703 5705 5704 5709 5706 5708 5706 5700 5690 5688 5687 5686 5682 5679 5678 5677 5676 5675 5676 5679 5677 5678 5679 5677 5676 5678 5678 5674 5672 5670 5668 5667 5665 5666 5666 5664 5665 5665 5665 5665 5665 5665 5666 5668 5670 5670
5701 5699 5701 5688 5689 5682 5689 5691 5690 5687 5683 5678 5674 5667 5665 5664 5660 5658 5655 5654 5654 5652 5651 5652 5653 5651 5653 5654 5651 5650 5650 5649 5648 5648 5646 5644 5645 5643 5642 5645 5643 5646 5646 5646 5647 5648 5648 5651 5654
5685 5687 5679 5674 5664 5661 5669 5671 5678 5672 5665 5660 5657 5648 5646 5645 5643 5639 5637 5634 5632 5630 5629 5627 5626 5626 5625 5625 5626 5625 5623 5624 5624 5624 5624 5623 5622 5622 5622 5624 5624 5624 5625 5627 5626 5628 5631 5632 5636
5665 5663 5661 5656 5649 5640 5639 5645 5660 5646 5638 5636 5636 5632 5627 5622 5618 5616 5614 5611 5610 5608 5606 5604 5603 5603 5601 5600 5600 5600 5601 5601 5601 5600 5598 5599 5599 5600 5602 5603 5602 5602 5604 5607 5609 5611 5613 5613 5615
5641 5640 5642 5633 5630 5622 5616 5613 5645 5631 5617 5612 5611 5609 5602 5598 5594 5592 5590 5586 5584 5584 5582 5578 5578 5579 5579 5578 5577 5576 5577 5578 5577 5578 5577 5576 5577 5578 5579 5581 5581 5582 5585 5588 5590 5591 5593 5594 5597